Torna al catalogo

COSMOS 397 DEB

AttivoLEO
NORAD 5097·DEBRIS·🇷🇺 Russia

Lanciato Feb 25, 1971 da Baikonur Cosmodrome

Loading…

Prossimi Passaggi (prossime 24 ore)

TLE

AggiornatoSource: Space-Track

Epoca: Sep 14, 2026, 13:24 UTC

1 05097U 71015W   26257.55851394  .00000408  00000-0  17880-3 0  9996
2 05097  65.7400 356.4663 0750579  66.1135 301.6685 13.37238112649158

Traccia COSMOS 397 DEB in tempo reale con AllMySat

Download on the App Store